Location: Unspecified
(0.0000°N, 0.0000°E)
Time: 18:51:10
(UTC+00:00)

BlueWalker 3 - Pass Details

Date: 20 March 2026
Orbit: 449 x 457 km, 53.2° (Epoch: 21 April)

Event Time Altitude Azimuth Distance (km) Brightness Sun altitude
Rises 18:54:37 0° 247° (WSW) 2,449 6.8 -11.8°
Reaches altitude 10° 18:57:41 10° 276° (W) 1,576 6.0 -12.6°
Maximum altitude 18:59:23 13° 304° (NW) 1,406 5.0 -13.0°
Drops below altitude 10° 19:01:04 10° 333° (NNW) 1,575 4.8 -13.4°
Sets 19:04:09 0° 2° (N) 2,446 5.4 -14.2°
